Starlink 11142

operational
NORAD ID: 59957 Int'l Des: 2024-107 Owner: SPXS Country: US Constellation: starlink
LEOCIRCULAR

关于 Starlink 11142

正在加载描述...

实时位置

正在加载3D地球...

即将过境

高度历史

Altitude vs Time

uPlot chart will show altitude changes over time

两行轨道根数

1 59957U 24107N 25307.83735889 -.00000425 00000-0 13497-5 0 9998
2 59957 53.1585 151.3603 0000934 99.2859 260.8264 15.69705372 82396
Epoch: Nov 3, 2025 • Age: 6 hours

当前状态

高度 365.9 km
速度 7.69 km/s
星下点 -20.68°S, 58.74°E
发射日期 Jun 5, 2024
运行时间 1.4 years
类型 internet

技术详情

分类 Payload
质量 960.00 kg
干质量 910.00 kg
总质量 960.00 kg
长度 0.30 m
直径 4.10 m
跨度 29.00 m
形状 Box + pan
制造商 SPXS
平台类型 Starlink V2MD
阶段状态 In Orbit
所有者/国家 SPXS/US

大型星座

Loading constellations...